Location: Palomar Mountain Lodge
(33.3110°N, 116.8495°W)
Time: 20:38:00
(UTC-07:00)

ASTRO E2 - Pass Details

Date: 14 June 2018
Orbit: 512 x 519 km, 31.4° (Epoch: 17 August)

Event Time Altitude Azimuth Distance (km) Brightness Sun altitude
Rises 22:02:10 0° 272° (W) 2,609 6.9 -21.0°
Reaches altitude 10° 22:04:32 10° 264° (W) 1,724 5.8 -21.3°
Enters shadow 22:07:17 31° 226° (SW) 918 3.8 -21.7°
